[[{"header":{"parameterUnit":"m.s-1","parameterCategory":1,"la1":30.2991,"la2":30.254,"lo1":-89.0895,"lo2":-89.0444,"dy":0.0017,"dx":0.0017,"nx":28,"ny":28,"refTime":"2025-04-15T09:00:00:Z","depth":0,"parameterNumber":2,"parameterNumberName":"U-component_of_WINDS"},"data":[0,0,0,0,0,0,0,0,0,0,0,0,0,0,0,0,0,0,0,0,0,0,0,0,0,0,0,0,0,0,0,0,0,0,0,0,0,0,0,0,0,0,0,0,0,0,0,0,0,0,0,0,0,0,0,0,0,0,1.0487,1.0488,0,1.0604,1.0605,1.0606,1.0653,1.0653,1.0653,1.0653,1.077,1.0773,1.0777,0,0,0,0,0,0,0,0,0,0,0,0,0,1.0303,1.0306,1.0487,1.0489,1.049,1.0603,1.0605,1.0607,1.0653,1.0653,1.0653,1.0653,1.0769,1.0773,1.0777,0,0,0,0,0,0,0,0,0,0,0,0,0,1.0397,1.0307,1.0487,1.0527,1.0532,1.0603,1.0605,1.0607,1.0654,1.0653,1.0653,1.0652,1.0768,1.0773,1.0778,1.0817,0,0,1.0793,1.0795,0,0,0,0,0,0,0,0,1.0392,1.0404,1.052,1.0525,1.053,1.0614,1.0583,1.0677,1.0654,1.0607,1.0653,1.0652,1.0718,1.0727,1.075,1.0822,1.0827,1.0794,1.0797,1.0799,1.08,0,0,0,0,0,0,0,1.0385,1.0399,1.0533,1.0521,1.0528,1.0539,1.0552,1.0601,1.0664,1.0611,1.0615,1.0628,1.0721,1.0745,1.0753,1.0829,1.0793,1.0798,1.0801,1.0803,1.0938,1.0939,0,0,0,0,0,0,1.0372,1.0393,1.0529,1.0537,1.0459,1.0542,1.0557,1.0587,1.0663,1.0674,1.0628,1.063,1.0737,1.0747,1.0757,1.0808,1.0799,1.0804,1.0806,1.0938,1.0938,1.0939,0,0,0,0,0,0,1.0368,1.0384,1.0525,1.0466,1.0485,1.0546,1.058,1.059,1.0614,1.0676,1.0687,1.0642,1.0737,1.075,1.0802,1.0813,1.0806,1.081,1.0937,1.0938,1.0939,1.0909,0,0,0,0,0,0,1.0363,1.0382,1.0399,1.0466,1.0488,1.0568,1.058,1.0592,1.0623,1.0626,1.0692,1.0702,1.0737,1.0794,1.0807,1.0819,1.0814,1.0936,1.0937,1.0938,1.0909,1.0909,1.0908,0,0,0,0,0,1.0356,1.0385,1.0399,1.0415,1.051,1.0568,1.0581,1.0621,1.0623,1.064,1.0679,1.07,1.0809,1.0799,1.0814,1.0828,1.0936,1.0937,1.0938,1.0909,1.0909,1.0908,0,0,0,0,0,0,1.0317,1.0395,1.0411,1.0464,1.0509,1.0576,1.0598,1.0619,1.0665,1.0666,1.0713,1.0728,1.0775,1.0807,1.0793,1.0869,1.0874,1.0878,1.0847,1.0847,1.0846,1.0838,1.0819,0,0,0,0,0,1.0315,1.0357,1.0422,1.0462,1.0484,1.0537,1.0564,1.0591,1.064,1.0659,1.0703,1.0749,1.0793,1.0822,1.0867,1.0914,1.0928,1.0931,1.093,1.093,1.0933,1.0959,1.0961,1.0943,1.0943,1.0943,0,0,1.031,1.0358,1.0381,1.0455,1.0494,1.0535,1.0553,1.0596,1.0627,1.0666,1.0717,1.075,1.0805,1.0854,1.0878,1.0882,1.0941,1.0931,1.093,1.0934,1.0961,1.0962,1.0964,1.0944,1.0944,1.0944,0,0,1.0323,1.0363,1.04,1.0438,1.0496,1.0531,1.054,1.0604,1.0628,1.068,1.0709,1.0746,1.0823,1.086,1.0889,1.0914,1.0934,1.0927,1.0924,1.095,1.0951,1.0953,1.0961,1.0963,1.093,1.093,1.093,0,1.0309,1.0374,1.0417,1.0458,1.0489,1.0527,1.0564,1.0598,1.0668,1.0688,1.0691,1.0787,1.0827,1.0885,1.089,1.0913,1.0924,1.092,1.0947,1.0949,1.0951,1.096,1.0963,1.0929,1.0929,1.0929,1.0929,0,1.0354,1.0398,1.0421,1.0487,1.0521,1.056,1.0608,1.0637,1.0661,1.0695,1.0746,1.0795,1.0849,1.0865,1.0889,1.0926,1.0927,1.0938,1.0944,1.0951,1.096,1.0964,1.0927,1.0927,1.0928,1.0928,0,0,1.0346,1.0435,1.0443,1.0473,1.0539,1.0573,1.0613,1.0667,1.069,1.0736,1.0771,1.0834,1.0845,1.0877,1.0905,1.0928,1.0944,1.0936,1.0938,1.0936,1.0987,1.0978,1.0981,1.0957,1.0958,1.0959,1.0982,0,1.0367,1.0442,1.0481,1.0538,1.0579,1.0614,1.0649,1.0693,1.0725,1.0764,1.08,1.0843,1.0855,1.0874,1.0898,1.0937,1.0955,1.0936,1.0989,1.0991,1.0975,1.0986,1.0977,1.0997,1.0986,1.0987,1.0987,0,1.0402,1.0448,1.0509,1.057,1.0588,1.0619,1.0671,1.0708,1.0757,1.0779,1.0815,1.0843,1.0886,1.0888,1.0947,1.0933,1.0957,1.098,1.0981,1.0988,1.0989,1.0992,1.1004,1.1007,1.0993,1.0993,1.0992,0,1.0389,1.0466,1.0513,1.0537,1.0609,1.063,1.0661,1.071,1.074,1.0785,1.0804,1.0853,1.088,1.0917,1.0957,1.0955,1.1012,1.1018,1.1031,1.103,1.1042,1.104,1.1057,1.1057,1.1057,1.1057,1.1057,0,1.0409,1.0445,1.0508,1.0537,1.0578,1.0622,1.0661,1.0694,1.0738,1.0773,1.0806,1.0838,1.0889,1.0927,1.0958,1.1002,1.1014,1.1033,1.104,1.103,1.1027,1.1046,1.1046,1.1058,1.1058,1.1057,1.1057,0,1.0401,1.0445,1.0498,1.0562,1.0579,1.0606,1.066,1.0689,1.0723,1.0766,1.0779,1.0832,1.0879,1.0922,1.0984,1.1005,1.1049,1.1059,1.1032,1.1037,1.1047,1.1046,1.1077,1.1083,1.1079,1.1079,1.1079,0,1.0411,1.0439,1.0506,1.0532,1.0562,1.0604,1.0634,1.0678,1.0708,1.0766,1.0787,1.0836,1.0878,1.095,1.0994,1.1041,1.1053,1.1061,1.106,1.1048,1.1053,1.105,1.1053,1.106,1.106,1.1059,1.1059,0,1.0423,1.0443,1.0485,1.0535,1.057,1.0611,1.0654,1.0673,1.0725,1.0757,1.0805,1.0837,1.09,1.0948,1.1,1.1031,1.1053,1.1059,1.1065,1.1054,1.1037,1.1046,1.103,1.1058,1.1058,1.1058,1.1058,1.1058,1.0424,1.0451,1.0501,1.0547,1.0584,1.0622,1.0652,1.069,1.0731,1.0786,1.0809,1.0857,1.0906,1.0978,1.1009,1.1047,1.1052,1.106,1.1062,1.1063,1.1061,1.1031,1.1056,1.1056,1.1057,1.1057,1.1057,0,1.0437,1.0471,1.0513,1.0571,1.0607,1.0625,1.0673,1.0701,1.0744,1.0787,1.0827,1.0882,1.0928,1.0975,1.1024,1.1045,1.1057,1.1057,1.1056,1.1062,1.1054,1.1044,1.1047,1.1047,1.1047,1.1047,1.1047,1.1047,1.0448,1.0494,1.052,1.0584,1.0618,1.0666,1.0691,1.0727,1.0761,1.0821,1.086,1.089,1.0935,1.0987,1.103,1.1043,1.1059,1.1056,1.1071,1.1062,1.1063,1.1063,1.1054,1.1059,1.1059,1.1077,1.1077,1.1077]},{"header":{"parameterUnit":"m.s-1","parameterCategory":1,"la1":30.2991,"la2":30.254,"lo1":-89.0895,"lo2":-89.0444,"dy":0.0017,"dx":0.0017,"nx":28,"ny":28,"refTime":"2025-04-15T09:00:00:Z","depth":0,"parameterNumber":3,"parameterNumberName":"V-component_of_WINDS"},"data":[0,0,0,0,0,0,0,0,0,0,0,0,0,0,0,0,0,0,0,0,0,0,0,0,0,0,0,0,0,0,0,0,0,0,0,0,0,0,0,0,0,0,0,0,0,0,0,0,0,0,0,0,0,0,0,0,0,0,3.2062,3.2062,0,3.2029,3.2029,3.2028,3.1956,3.1954,3.1953,3.1952,3.1917,3.1918,3.1918,0,0,0,0,0,0,0,0,0,0,0,0,0,3.2061,3.2062,3.2062,3.2062,3.2062,3.2029,3.2029,3.2028,3.1956,3.1954,3.1953,3.1951,3.1917,3.1918,3.1918,0,0,0,0,0,0,0,0,0,0,0,0,0,3.2048,3.2062,3.2063,3.2022,3.2018,3.2029,3.2029,3.2028,3.1957,3.1954,3.1952,3.195,3.1917,3.1918,3.1918,3.1967,0,0,3.192,3.1921,0,0,0,0,0,0,0,0,3.2049,3.2048,3.2028,3.2025,3.202,3.1994,3.2016,3.2008,3.1957,3.198,3.1952,3.1949,3.1945,3.1943,3.1942,3.1965,3.1964,3.192,3.1921,3.1921,3.1921,0,0,0,0,0,0,0,3.205,3.2049,3.2049,3.2028,3.2023,3.2004,3.2,3.2014,3.1975,3.1978,3.1972,3.1969,3.1942,3.1941,3.194,3.1963,3.192,3.1921,3.1921,3.1922,3.2021,3.2023,0,0,0,0,0,0,3.2057,3.2051,3.205,3.2048,3.2029,3.2006,3.2001,3.2005,3.1975,3.1968,3.1971,3.1966,3.1941,3.1939,3.1939,3.1991,3.1921,3.1922,3.1922,3.2019,3.2022,3.2024,0,0,0,0,0,0,3.2057,3.2058,3.2052,3.2048,3.2046,3.2009,3.2013,3.2005,3.2004,3.197,3.1962,3.1978,3.1939,3.1938,3.1959,3.1989,3.1922,3.1923,3.2016,3.202,3.2023,3.2097,0,0,0,0,0,0,3.2058,3.2058,3.2077,3.2049,3.2046,3.2074,3.2015,3.2006,3.2006,3.1999,3.1974,3.1968,3.1937,3.1959,3.196,3.1988,3.1923,3.2013,3.2018,3.2022,3.2092,3.2103,3.2112,0,0,0,0,0,3.2058,3.21,3.2078,3.2079,3.2069,3.2076,3.2074,3.2039,3.2009,3.2026,3.2004,3.1968,3.1986,3.1962,3.1963,3.1991,3.2011,3.2017,3.2021,3.2087,3.21,3.2112,0,0,0,0,0,0,3.2133,3.2096,3.2071,3.2106,3.2094,3.2064,3.2085,3.2054,3.2051,3.2045,3.2001,3.1996,3.2023,3.2009,3.1983,3.2035,3.1993,3.1998,3.2042,3.2055,3.2064,3.2066,3.1924,0,0,0,0,0,3.2153,3.2163,3.2129,3.2163,3.2158,3.2123,3.2125,3.2098,3.2085,3.2079,3.2059,3.2047,3.2049,3.2051,3.2052,3.209,3.2082,3.211,3.212,3.2128,3.2133,3.2149,3.216,3.2041,3.204,3.204,0,0,3.2196,3.2177,3.2185,3.2177,3.2165,3.2174,3.2119,3.2132,3.2138,3.2081,3.21,3.2084,3.2068,3.2097,3.2109,3.2087,3.2164,3.2135,3.2142,3.2142,3.2155,3.2167,3.2177,3.2044,3.2043,3.2043,0,0,3.2277,3.2265,3.229,3.2279,3.2261,3.2237,3.2243,3.2216,3.2204,3.2222,3.2178,3.2184,3.219,3.2179,3.2175,3.225,3.2216,3.2251,3.2303,3.2319,3.2328,3.2336,3.236,3.237,3.2256,3.2257,3.2257,0,3.2332,3.2345,3.2307,3.2321,3.2318,3.2267,3.229,3.2282,3.2265,3.2264,3.2239,3.2244,3.2229,3.2254,3.2272,3.2271,3.2274,3.2253,3.233,3.2338,3.2345,3.2367,3.2377,3.2261,3.226,3.226,3.226,0,3.2411,3.2421,3.2443,3.2427,3.2427,3.2447,3.241,3.2414,3.2387,3.2365,3.2383,3.2364,3.2358,3.2362,3.2337,3.2382,3.2369,3.2338,3.2294,3.2361,3.2381,3.239,3.2267,3.2265,3.2264,3.2263,0,0,3.2539,3.2501,3.251,3.2501,3.2477,3.2483,3.2499,3.2493,3.2496,3.2487,3.2497,3.2503,3.2473,3.2468,3.2441,3.2455,3.2512,3.2422,3.2421,3.2437,3.2558,3.2579,3.259,3.2491,3.2492,3.2493,3.2558,0,3.2613,3.2638,3.2604,3.2636,3.2643,3.2594,3.2607,3.2594,3.2573,3.2575,3.2553,3.2556,3.2518,3.2514,3.2527,3.2503,3.2536,3.2498,3.2498,3.2499,3.2502,3.2601,3.2624,3.2687,3.2566,3.2568,3.2569,0,3.2703,3.2696,3.2729,3.2701,3.2702,3.2715,3.2705,3.2709,3.2691,3.2675,3.2669,3.2636,3.2648,3.2607,3.2622,3.2597,3.2595,3.2583,3.2585,3.2582,3.2536,3.2598,3.2706,3.2715,3.2581,3.258,3.2579,0,3.2789,3.2789,3.2807,3.2802,3.277,3.278,3.2767,3.2747,3.2745,3.2737,3.2734,3.2728,3.2724,3.2719,3.2684,3.2658,3.2703,3.2659,3.2688,3.2689,3.2698,3.2697,3.2804,3.2701,3.2701,3.2701,3.2701,0,3.2874,3.2895,3.2845,3.2857,3.2879,3.2838,3.2861,3.2843,3.2826,3.2832,3.279,3.2796,3.2751,3.2752,3.2726,3.274,3.274,3.2726,3.2718,3.2728,3.2729,3.2725,3.2718,3.2703,3.2703,3.2702,3.2702,0,3.2973,3.2941,3.2958,3.2926,3.2918,3.2935,3.2907,3.2916,3.2892,3.29,3.29,3.2863,3.2862,3.2828,3.282,3.2801,3.2826,3.2812,3.2832,3.2826,3.2856,3.2852,3.2961,3.2972,3.2865,3.2866,3.2867,0,3.3028,3.3043,3.3012,3.3013,3.3002,3.3005,3.3002,3.2962,3.2961,3.2941,3.2951,3.2947,3.294,3.2941,3.2913,3.2906,3.2889,3.2928,3.2887,3.2896,3.2886,3.2884,3.2884,3.2935,3.2937,3.2938,3.2939,0,3.3128,3.3111,3.3109,3.31,3.3098,3.3089,3.3078,3.3081,3.3037,3.3037,3.3035,3.3031,3.3022,3.3017,3.3004,3.299,3.2956,3.2952,3.2957,3.2967,3.2977,3.2969,3.2852,3.2949,3.2948,3.2947,3.2947,3.2946,3.3205,3.3215,3.3194,3.3192,3.3179,3.3169,3.3175,3.3152,3.315,3.3139,3.3116,3.3117,3.3096,3.3076,3.3064,3.3063,3.3044,3.3053,3.3054,3.3057,3.3061,3.2979,3.3061,3.3061,3.3061,3.3061,3.306,0,3.3301,3.3285,3.3283,3.3268,3.3266,3.3235,3.3221,3.322,3.3222,3.3206,3.3201,3.3197,3.3192,3.3163,3.3153,3.3158,3.3142,3.3157,3.3155,3.3151,3.3081,3.3076,3.317,3.317,3.317,3.317,3.317,3.317,3.335,3.3364,3.3345,3.3351,3.3335,3.3335,3.3329,3.3319,3.3306,3.3304,3.3299,3.328,3.3258,3.3246,3.3239,3.3231,3.3228,3.3247,3.3233,3.3168,3.3157,3.3147,3.3141,3.3248,3.3248,3.3303,3.3304,3.3304]}]]